| time (UTC) | temp F | wind direction | speed MPH | gust MPH | rain 1hr in | rain 24hr in | rain mn in | humidity % | barometer mb |
| 20260906220052 | 67 | 198 | 3.0 | 6.0 | 0.00 | 0.00 | 0.00 | 77 | 1015.7 |
| 20260906214549 | 67 | 198 | 1.0 | 6.0 | 0.00 | 0.00 | 0.00 | 79 | 1015.6 |
| 20260906213044 | 66 | 0 | 0.0 | 1.0 | 0.00 | 0.00 | 0.00 | 82 | 1015.6 |
| 20260906211544 | 65 | 0 | 0.0 | 3.0 | 0.00 | 0.00 | 0.00 | 82 | 1015.5 |
| 20260906210054 | 65 | 0 | 0.0 | 4.0 | 0.00 | 0.00 | 0.00 | 82 | 1015.5 |
| 20260906204547 | 65 | 0 | 0.0 | 5.0 | 0.00 | 0.00 | 0.00 | 81 | 1015.3 |
| 20260906203043 | 66 | 49 | 3.0 | 7.0 | 0.00 | 0.00 | 0.00 | 79 | 1015.3 |
| 20260906201543 | 67 | 42 | 3.0 | 15.0 | 0.00 | 0.00 | 0.00 | 76 | 1015.2 |
| 20260906200049 | 68 | 111 | 4.0 | 12.0 | 0.00 | 0.00 | 0.00 | 75 | 1015.2 |
| 20260906194547 | 70 | 32 | 5.0 | 10.0 | 0.00 | 0.00 | 0.00 | 69 | 1015.0 |
| 20260906193045 | 71 | 27 | 2.0 | 7.0 | 0.00 | 0.00 | 0.00 | 68 | 1014.9 |
| 20260906191545 | 73 | 26 | 3.0 | 10.0 | 0.00 | 0.00 | 0.00 | 66 | 1014.9 |
| 20260906190056 | 71 | 345 | 4.0 | 10.0 | 0.00 | 0.00 | 0.00 | 70 | 1014.9 |
| 20260906184552 | 70 | 306 | 2.0 | 6.0 | 0.00 | 0.00 | 0.00 | 71 | 1015.0 |
| 20260906183058 | 67 | 24 | 1.0 | 9.0 | 0.00 | 0.00 | 0.00 | 77 | 1015.2 |
| 20260906181551 | 67 | 17 | 2.0 | 9.0 | 0.00 | 0.00 | 0.00 | 76 | 1015.2 |
| 20260906180046 | 68 | 133 | 1.0 | 9.0 | 0.00 | 0.00 | 0.00 | 77 | 1015.4 |
| 20260906174546 | 68 | 59 | 1.0 | 12.0 | 0.00 | 0.00 | 0.00 | 76 | 1015.4 |
| 20260906173054 | 69 | 105 | 4.0 | 13.0 | 0.00 | 0.00 | 0.00 | 74 | 1015.3 |
| 20260906171546 | 68 | 61 | 3.0 | 12.0 | 0.00 | 0.00 | 0.00 | 76 | 1015.4 |
| 20260906170044 | 70 | 19 | 7.0 | 15.0 | 0.00 | 0.00 | 0.00 | 71 | 1015.4 |
| 20260906164545 | 71 | 304 | 4.0 | 11.0 | 0.00 | 0.00 | 0.00 | 72 | 1015.3 |
| 20260906163052 | 70 | 330 | 5.0 | 13.0 | 0.00 | 0.00 | 0.00 | 72 | 1015.4 |
| 20260906161546 | 70 | 355 | 4.0 | 11.0 | 0.00 | 0.00 | 0.00 | 74 | 1015.5 |
| 20260906160109 | 69 | 321 | 3.0 | 11.0 | 0.00 | 0.00 | 0.00 | 78 | 1015.5 |
| 20260906154559 | 67 | 340 | 4.0 | 10.0 | 0.00 | 0.00 | 0.00 | 78 | 1015.4 |
| 20260906153046 | 67 | 360 | 5.0 | 14.0 | 0.00 | 0.00 | 0.00 | 81 | 1015.6 |
| 20260906151545 | 65 | 46 | 4.0 | 11.0 | 0.00 | 0.00 | 0.00 | 83 | 1015.7 |
| 20260906150048 | 64 | 38 | 5.0 | 11.0 | 0.00 | 0.00 | 0.00 | 83 | 1015.7 |
| 20260906144550 | 64 | 321 | 5.0 | 12.0 | 0.00 | 0.00 | 0.00 | 83 | 1015.7 |
| 20260906143048 | 64 | 5 | 4.0 | 11.0 | 0.00 | 0.00 | 0.00 | 87 | 1015.7 |
| 20260906141544 | 63 | 331 | 5.0 | 13.0 | 0.00 | 0.00 | 0.00 | 87 | 1015.8 |
| 20260906140052 | 63 | 26 | 3.0 | 9.0 | 0.00 | 0.00 | 0.00 | 88 | 1015.6 |
| 20260906134556 | 63 | 41 | 3.0 | 13.0 | 0.00 | 0.00 | 0.00 | 86 | 1015.7 |
| 20260906133108 | 63 | 350 | 3.0 | 9.0 | 0.00 | 0.00 | 0.00 | 88 | 1015.6 |
| 20260906131545 | 62 | 331 | 4.0 | 10.0 | 0.00 | 0.00 | 0.00 | 89 | 1015.7 |
| 20260906130052 | 61 | 360 | 4.0 | 10.0 | 0.00 | 0.00 | 0.00 | 90 | 1015.5 |
| 20260906124551 | 61 | 36 | 5.0 | 10.0 | 0.00 | 0.00 | 0.00 | 89 | 1015.4 |
| 20260906123046 | 61 | 43 | 2.0 | 10.0 | 0.00 | 0.00 | 0.00 | 91 | 1015.4 |
| 20260906121552 | 60 | 30 | 6.0 | 11.0 | 0.00 | 0.00 | 0.00 | 92 | 1015.2 |
| 20260906120049 | 60 | 27 | 4.0 | 10.0 | 0.00 | 0.00 | 0.00 | 93 | 1015.2 |
| 20260906114557 | 60 | 360 | 2.0 | 7.0 | 0.00 | 0.00 | 0.00 | 92 | 1015.0 |
| 20260906113047 | 60 | 41 | 2.0 | 7.0 | 0.00 | 0.00 | 0.00 | 91 | 1014.7 |
| 20260906111554 | 60 | 43 | 3.0 | 13.0 | 0.00 | 0.00 | 0.00 | 92 | 1014.5 |
| 20260906110046 | 61 | 56 | 5.0 | 10.0 | 0.00 | 0.00 | 0.00 | 92 | 1014.5 |
| 20260906104601 | 61 | 29 | 3.0 | 12.0 | 0.00 | 0.00 | 0.00 | 92 | 1014.3 |
| 20260906103044 | 61 | 31 | 4.0 | 11.0 | 0.00 | 0.00 | 0.00 | 92 | 1014.1 |
| 20260906101553 | 62 | 73 | 6.0 | 11.0 | 0.00 | 0.00 | 0.00 | 92 | 1014.0 |
| 20260906100045 | 62 | 33 | 5.0 | 12.0 | 0.00 | 0.00 | 0.00 | 91 | 1013.8 |
| 20260906094546 | 62 | 19 | 4.0 | 10.0 | 0.00 | 0.00 | 0.00 | 91 | 1013.6 |
| 20260906093058 | 62 | 32 | 5.0 | 13.0 | 0.00 | 0.00 | 0.00 | 91 | 1013.4 |
| 20260906091551 | 62 | 31 | 3.0 | 11.0 | 0.00 | 0.00 | 0.00 | 92 | 1013.3 |
| 20260906090050 | 62 | 360 | 3.0 | 9.0 | 0.00 | 0.00 | 0.00 | 92 | 1013.3 |
| 20260906084545 | 62 | 20 | 3.0 | 7.0 | 0.00 | 0.00 | 0.00 | 91 | 1013.2 |
| 20260906083053 | 62 | 32 | 3.0 | 8.0 | 0.00 | 0.00 | 0.00 | 91 | 1013.2 |
| 20260906081551 | 62 | 38 | 3.0 | 9.0 | 0.00 | 0.00 | 0.00 | 91 | 1013.1 |
| 20260906080047 | 62 | 5 | 4.0 | 8.0 | 0.00 | 0.00 | 0.00 | 91 | 1012.9 |
| 20260906074556 | 62 | 50 | 4.0 | 7.0 | 0.00 | 0.00 | 0.00 | 90 | 1012.8 |
| 20260906073056 | 62 | 42 | 4.0 | 8.0 | 0.00 | 0.00 | 0.00 | 90 | 1013.0 |
| 20260906071552 | 62 | 17 | 2.0 | 5.0 | 0.00 | 0.00 | 0.00 | 89 | 1013.0 |
| 20260906070045 | 62 | 29 | 3.0 | 5.0 | 0.00 | 0.00 | 0.00 | 90 | 1012.9 |
| 20260906064544 | 62 | 0 | 0.0 | 4.0 | 0.00 | 0.00 | 0.00 | 90 | 1013.0 |
| 20260906063046 | 62 | 29 | 1.0 | 4.0 | 0.00 | 0.00 | 0.00 | 90 | 1013.0 |
| 20260906061545 | 62 | 15 | 2.0 | 5.0 | 0.00 | 0.00 | 0.00 | 90 | 1013.0 |
| 20260906060053 | 63 | 36 | 3.0 | 6.0 | 0.00 | 0.00 | 0.00 | 89 | 1013.1 |
| 20260906054601 | 63 | 20 | 2.0 | 5.0 | 0.00 | 0.00 | 0.00 | 89 | 1013.1 |
| 20260906053047 | 63 | 17 | 1.0 | 4.0 | 0.00 | 0.00 | 0.00 | 89 | 1013.3 |
| 20260906051545 | 62 | 28 | 2.0 | 5.0 | 0.00 | 0.00 | 0.00 | 88 | 1013.4 |
| 20260906050112 | 62 | 14 | 2.0 | 5.0 | 0.00 | 0.00 | 0.00 | 89 | 1013.5 |
| 20260906044549 | 62 | 36 | 2.0 | 5.0 | 0.00 | 0.00 | 0.00 | 89 | 1013.4 |
| 20260906043044 | 62 | 26 | 2.0 | 4.0 | 0.00 | 0.00 | 0.00 | 89 | 1013.3 |
| 20260906041553 | 62 | 43 | 0.0 | 2.0 | 0.00 | 0.00 | 0.00 | 89 | 1013.3 |
| 20260906040050 | 62 | 0 | 0.0 | 2.0 | 0.00 | 0.00 | 0.00 | 88 | 1013.2 |
| 20260906034546 | 63 | 0 | 0.0 | 1.0 | 0.00 | 0.00 | 0.00 | 88 | 1013.2 |
| 20260906033053 | 63 | 0 | 0.0 | 2.0 | 0.00 | 0.00 | 0.00 | 87 | 1013.2 |
| 20260906031547 | 63 | 24 | 1.0 | 3.0 | 0.00 | 0.00 | 0.00 | 87 | 1013.0 |
| 20260906030045 | 63 | 17 | 1.0 | 4.0 | 0.00 | 0.00 | 0.00 | 87 | 1013.0 |
| 20260906024607 | 63 | 0 | 1.0 | 4.0 | 0.00 | 0.00 | 0.00 | 86 | 1013.0 |
| 20260906023048 | 64 | 19 | 1.0 | 5.0 | 0.00 | 0.00 | 0.00 | 86 | 1013.0 |
| 20260906021552 | 64 | 17 | 2.0 | 4.0 | 0.00 | 0.00 | 0.00 | 86 | 1013.2 |
| 20260906020052 | 63 | 21 | 1.0 | 6.0 | 0.00 | 0.00 | 0.00 | 85 | 1012.9 |
| 20260906014554 | 63 | 42 | 0.0 | 5.0 | 0.00 | 0.00 | 0.00 | 85 | 1013.0 |
| 20260906013049 | 63 | 5 | 0.0 | 2.0 | 0.00 | 0.00 | 0.00 | 86 | 1013.1 |
| 20260906011544 | 63 | 0 | 0.0 | 5.0 | 0.00 | 0.00 | 0.00 | 85 | 1012.9 |
| 20260906010046 | 63 | 18 | 1.0 | 5.0 | 0.00 | 0.00 | 0.00 | 85 | 1012.7 |
| 20260906004549 | 63 | 23 | 0.0 | 3.0 | 0.00 | 0.00 | 0.00 | 85 | 1012.6 |
| 20260906003047 | 64 | 32 | 1.0 | 5.0 | 0.00 | 0.00 | 0.00 | 85 | 1012.5 |
| 20260906001543 | 64 | 76 | 1.0 | 5.0 | 0.00 | 0.00 | 0.00 | 85 | 1012.2 |
| 20260906000057 | 64 | 93 | 1.0 | 7.0 | 0.00 | 0.00 | 0.00 | 84 | 1012.2 |
| 20260905234606 | 65 | 115 | 0.0 | 6.0 | 0.00 | 0.00 | 0.00 | 84 | 1012.1 |
| 20260905233045 | 65 | 0 | 0.0 | 6.0 | 0.00 | 0.00 | 0.00 | 84 | 1012.0 |
| 20260905231556 | 66 | 38 | 1.0 | 10.0 | 0.00 | 0.00 | 0.00 | 83 | 1012.0 |
| 20260905230109 | 66 | 45 | 4.0 | 10.0 | 0.00 | 0.00 | 0.00 | 82 | 1012.1 |
| 20260905224544 | 67 | 77 | 4.0 | 12.0 | 0.00 | 0.00 | 0.00 | 81 | 1011.9 |
| 20260905223054 | 67 | 91 | 3.0 | 14.0 | 0.00 | 0.00 | 0.00 | 80 | 1011.8 |
| 20260905221554 | 68 | 117 | 3.0 | 9.0 | 0.00 | 0.00 | 0.00 | 80 | 1011.7 |